Hourly Weather Kituri

Today, 21 October, Wednesday

Time Temperature Precipitation Wind Pressure Humidity
00:00 +7°C° 2.3 mm 2 mps 623 mmHg 98%
01:00 +7°C° 2.2 mm 2 mps 623 mmHg 97%
02:00 +6°C° 2.2 mm 2 mps 623 mmHg 97%
03:00 +6°C° 0 mm 2 mps 623 mmHg 97%
04:00 +7°C° 0.4 mm 1 mps 624 mmHg 97%
05:00 +7°C° 0.4 mm 1 mps 624 mmHg 97%
06:00 +7°C° 0.4 mm 1 mps 624 mmHg 98%
07:00 +7°C° 0.1 mm 1 mps 625 mmHg 96%
08:00 +8°C° 0.1 mm 1 mps 625 mmHg 94%
09:00 +8°C° 0 mm 1 mps 626 mmHg 91%
10:00 +9°C° 0 mm 1 mps 626 mmHg 88%
11:00 +9°C° 0 mm 1 mps 626 mmHg 84%
12:00 +9°C° 0 mm 2 mps 626 mmHg 80%
13:00 +9°C° 0 mm 2 mps 626 mmHg 79%
14:00 +10°C° 0 mm 1 mps 626 mmHg 78%
15:00 +9°C° 0 mm 1 mps 626 mmHg 79%
16:00 +8°C° 0 mm 1 mps 625 mmHg 83%
17:00 +7°C° 0 mm 1 mps 625 mmHg 86%
18:00 +6°C° 0 mm 1 mps 625 mmHg 89%
19:00 +6°C° 0 mm 1 mps 625 mmHg 91%
20:00 +5°C° 0 mm 1 mps 624 mmHg 92%
21:00 +5°C° 0 mm 1 mps 624 mmHg 93%
22:00 +5°C° 0 mm 1 mps 624 mmHg 93%
23:00 +5°C° 0 mm 1 mps 624 mmHg 94%

Tomorrow, 22 October, Thursday

Time Temperature Precipitation Wind Pressure Humidity
00:00 +5°C° 0 mm 1 mps 624 mmHg 94%
01:00 +5°C° 0 mm 1 mps 624 mmHg 93%
02:00 +5°C° 0 mm 1 mps 623 mmHg 91%
03:00 +4°C° 0 mm 1 mps 623 mmHg 90%
04:00 +4°C° 0 mm 1 mps 623 mmHg 86%
05:00 +4°C° 0 mm 1 mps 623 mmHg 83%
06:00 +4°C° 0 mm 1 mps 622 mmHg 79%
07:00 +6°C° 0 mm 1 mps 623 mmHg 72%
08:00 +7°C° 0 mm 1 mps 623 mmHg 64%
09:00 +8°C° 0 mm 0 mps 624 mmHg 57%
10:00 +10°C° 0 mm 1 mps 624 mmHg 54%
11:00 +12°C° 0 mm 1 mps 625 mmHg 50%
12:00 +13°C° 0 mm 1 mps 625 mmHg 47%
13:00 +13°C° 0 mm 1 mps 625 mmHg 49%
14:00 +13°C° 0 mm 1 mps 624 mmHg 51%
15:00 +12°C° 0 mm 1 mps 624 mmHg 53%
16:00 +11°C° 0 mm 1 mps 624 mmHg 59%
17:00 +9°C° 0 mm 1 mps 623 mmHg 66%
18:00 +7°C° 0 mm 1 mps 622 mmHg 72%
19:00 +7°C° 0 mm 1 mps 622 mmHg 69%
20:00 +7°C° 0 mm 1 mps 622 mmHg 66%
21:00 +7°C° 0 mm 1 mps 623 mmHg 63%
22:00 +6°C° 0 mm 0 mps 622 mmHg 60%
23:00 +5°C° 0 mm 0 mps 622 mmHg 58%

Day after tomorrow, 23 October, Friday

Time Temperature Precipitation Wind Pressure Humidity
00:00 +5°C° 0 mm 0 mps 622 mmHg 55%
01:00 +5°C° 0 mm 0 mps 622 mmHg 54%
02:00 +5°C° 0 mm 0 mps 622 mmHg 53%
03:00 +5°C° 0 mm 0 mps 622 mmHg 52%
04:00 +5°C° 0 mm 0 mps 622 mmHg 52%
05:00 +5°C° 0 mm 0 mps 622 mmHg 53%
06:00 +5°C° 0 mm 0 mps 622 mmHg 54%
07:00 +7°C° 0 mm 0 mps 623 mmHg 51%
08:00 +9°C° 0 mm 1 mps 624 mmHg 49%
09:00 +11°C° 0 mm 1 mps 625 mmHg 46%
10:00 +12°C° 0 mm 1 mps 625 mmHg 47%
11:00 +13°C° 0 mm 1 mps 625 mmHg 49%
12:00 +14°C° 0 mm 1 mps 626 mmHg 50%
13:00 +14°C° 0 mm 1 mps 625 mmHg 51%
14:00 +14°C° 0 mm 1 mps 625 mmHg 53%
15:00 +14°C° 0 mm 1 mps 625 mmHg 54%
16:00 +12°C° 0 mm 1 mps 624 mmHg 60%
17:00 +10°C° 0 mm 1 mps 624 mmHg 66%
18:00 +8°C° 0 mm 1 mps 623 mmHg 71%
19:00 +8°C° 0 mm 1 mps 623 mmHg 69%
20:00 +7°C° 0 mm 0 mps 623 mmHg 68%
21:00 +7°C° 0 mm 0 mps 623 mmHg 66%
22:00 +7°C° 0 mm 1 mps 623 mmHg 67%
23:00 +7°C° 0 mm 1 mps 622 mmHg 69%

24 October, Saturday

Time Temperature Precipitation Wind Pressure Humidity
00:00 +7°C° 0 mm 1 mps 622 mmHg 70%
01:00 +7°C° 0 mm 1 mps 622 mmHg 72%
02:00 +7°C° 0 mm 1 mps 622 mmHg 74%
03:00 +7°C° 0 mm 1 mps 621 mmHg 76%
04:00 +7°C° 0 mm 1 mps 621 mmHg 74%
05:00 +7°C° 0 mm 1 mps 621 mmHg 73%
06:00 +7°C° 0 mm 1 mps 621 mmHg 72%
07:00 +9°C° 0 mm 1 mps 622 mmHg 64%
08:00 +12°C° 0 mm 1 mps 623 mmHg 57%
09:00 +14°C° 0 mm 1 mps 624 mmHg 50%
10:00 +15°C° 0 mm 1 mps 624 mmHg 48%
11:00 +16°C° 0 mm 1 mps 624 mmHg 46%
12:00 +18°C° 0 mm 2 mps 624 mmHg 44%
13:00 +18°C° 0 mm 1 mps 624 mmHg 46%
14:00 +18°C° 0 mm 1 mps 623 mmHg 47%
15:00 +18°C° 0 mm 1 mps 623 mmHg 48%
16:00 +15°C° 0 mm 1 mps 622 mmHg 56%
17:00 +13°C° 0 mm 1 mps 622 mmHg 63%
18:00 +11°C° 0 mm 1 mps 621 mmHg 71%
19:00 +10°C° 0 mm 1 mps 621 mmHg 67%
20:00 +10°C° 0 mm 1 mps 621 mmHg 64%
21:00 +10°C° 0 mm 1 mps 621 mmHg 61%
22:00 +10°C° 0 mm 1 mps 621 mmHg 60%
23:00 +10°C° 0 mm 1 mps 621 mmHg 58%

25 October, Sunday

Time Temperature Precipitation Wind Pressure Humidity
00:00 +9°C° 0 mm 1 mps 620 mmHg 57%
01:00 +9°C° 0 mm 1 mps 620 mmHg 56%
02:00 +9°C° 0 mm 1 mps 620 mmHg 55%
03:00 +9°C° 0 mm 1 mps 620 mmHg 55%
04:00 +9°C° 0 mm 1 mps 620 mmHg 54%
05:00 +9°C° 0 mm 1 mps 620 mmHg 54%
06:00 +9°C° 0 mm 1 mps 619 mmHg 54%
07:00 +11°C° 0 mm 1 mps 620 mmHg 50%
08:00 +13°C° 0 mm 2 mps 621 mmHg 47%
09:00 +16°C° 0 mm 2 mps 622 mmHg 43%
10:00 +16°C° 0 mm 2 mps 622 mmHg 40%
11:00 +17°C° 0 mm 2 mps 622 mmHg 37%
12:00 +18°C° 0 mm 2 mps 622 mmHg 35%
13:00 +18°C° 0 mm 2 mps 622 mmHg 36%
14:00 +17°C° 0 mm 2 mps 621 mmHg 38%
15:00 +17°C° 0 mm 2 mps 621 mmHg 40%
16:00 +15°C° 0 mm 2 mps 620 mmHg 45%
17:00 +13°C° 0 mm 1 mps 620 mmHg 51%
18:00 +12°C° 0 mm 1 mps 619 mmHg 57%
19:00 +11°C° 0 mm 1 mps 619 mmHg 55%
20:00 +11°C° 0 mm 1 mps 619 mmHg 54%
21:00 +10°C° 0 mm 1 mps 619 mmHg 53%
22:00 +10°C° 0 mm 1 mps 619 mmHg 53%
23:00 +10°C° 0 mm 1 mps 619 mmHg 52%

26 October, Monday

Time Temperature Precipitation Wind Pressure Humidity
00:00 +10°C° 0 mm 1 mps 619 mmHg 52%
01:00 +10°C° 0 mm 1 mps 619 mmHg 52%
02:00 +9°C° 0 mm 1 mps 618 mmHg 52%
03:00 +9°C° 0 mm 1 mps 618 mmHg 52%
04:00 +9°C° 0 mm 1 mps 618 mmHg 52%
05:00 +8°C° 0 mm 1 mps 618 mmHg 52%
06:00 +8°C° 0 mm 1 mps 618 mmHg 51%
07:00 +10°C° 0 mm 1 mps 619 mmHg 47%
08:00 +12°C° 0 mm 2 mps 620 mmHg 43%
09:00 +13°C° 0 mm 2 mps 621 mmHg 39%
10:00 +14°C° 0 mm 2 mps 621 mmHg 36%
11:00 +14°C° 0 mm 3 mps 621 mmHg 34%
12:00 +16°C° 0 mm 3 mps 621 mmHg 31%
13:00 +14°C° 0 mm 3 mps 621 mmHg 33%
14:00 +14°C° 0 mm 3 mps 621 mmHg 36%
15:00 +14°C° 0 mm 2 mps 621 mmHg 38%
16:00 +13°C° 0 mm 2 mps 620 mmHg 44%
17:00 +10°C° 0 mm 2 mps 620 mmHg 49%
18:00 +10°C° 0 mm 1 mps 620 mmHg 55%
19:00 +9°C° 0 mm 1 mps 620 mmHg 57%
20:00 +9°C° 0 mm 1 mps 620 mmHg 60%
21:00 +9°C° 0 mm 1 mps 620 mmHg 62%
22:00 +8°C° 0 mm 1 mps 620 mmHg 62%
23:00 +8°C° 0 mm 1 mps 620 mmHg 63%

27 October, Tuesday

Time Temperature Precipitation Wind Pressure Humidity
00:00 +7°C° 0 mm 1 mps 620 mmHg 64%
01:00 +7°C° 0 mm 1 mps 620 mmHg 66%
02:00 +7°C° 0 mm 1 mps 620 mmHg 67%
03:00 +6°C° 0 mm 1 mps 620 mmHg 69%
04:00 +6°C° 0 mm 1 mps 620 mmHg 71%
05:00 +6°C° 0 mm 1 mps 621 mmHg 73%
06:00 +6°C° 0 mm 1 mps 621 mmHg 74%
07:00 +7°C° 0 mm 1 mps 622 mmHg 68%
08:00 +9°C° 0 mm 1 mps 623 mmHg 61%
09:00 +11°C° 0 mm 1 mps 624 mmHg 55%
10:00 +12°C° 0 mm 1 mps 624 mmHg 52%
11:00 +13°C° 0 mm 1 mps 624 mmHg 50%
12:00 +14°C° 0 mm 2 mps 625 mmHg 47%
13:00 +13°C° 0 mm 2 mps 624 mmHg 53%
14:00 +13°C° 0 mm 2 mps 624 mmHg 59%
15:00 +12°C° 0 mm 2 mps 624 mmHg 64%
16:00 +11°C° 0 mm 1 mps 623 mmHg 73%
17:00 +9°C° 0 mm 1 mps 623 mmHg 81%
18:00 +7°C° 0 mm 1 mps 623 mmHg 90%
19:00 +7°C° 0 mm 1 mps 623 mmHg 90%
20:00 +7°C° 0 mm 1 mps 623 mmHg 90%
21:00 +6°C° 0 mm 1 mps 623 mmHg 91%
22:00 +6°C° 0 mm 1 mps 623 mmHg 87%
23:00 +6°C° 0 mm 1 mps 623 mmHg 83%
Show more